Starlink 4046

operational
NORAD ID: 52842 Int'l Des: 2022-062 Owner: SPXS Country: US Constellation: starlink
LEOCIRCULAR

Über Starlink 4046

Beschreibung wird geladen...

Live-Position

3D-Globus wird geladen...

Nächste Überflüge

Höhenverlauf

Altitude vs Time

uPlot chart will show altitude changes over time

Zweizeiliger Elementsatz

1 52842U 22062N 25352.39993233 -.00000596 00000-0 -19358-4 0 9993
2 52842 53.2180 38.9673 0001387 89.8565 270.2586 15.08842234193514
Epoch: 18. Dez. 2025 • Age: 11 hours

Aktueller Status

Höhe 542.7 km
Geschwindigkeit 7.59 km/s
Subsatellitenpunkt -10.04°S, 8.45°W
Startdatum 17. Juni 2022
Alter 3.5 years
Typ internet

Technische Details

Klassifizierung Payload
Masse 297.00 kg
Trockenmasse 275.00 kg
Gesamtmasse 297.00 kg
Länge 0.20 m
Durchmesser 2.80 m
Spannweite 9.00 m
Form Box + pan
Hersteller SPXS
Bus-Typ Starlink
Phasenstatus In Orbit
Besitzer/Staat SPXS/US

Große Konstellationen

Loading constellations...